| time (UTC) | temp C | wind direction | speed KPH | gust KPH | rain 1hr cm | rain 24hr cm | rain mn cm | humidity % | barometer mb |
| 20260507040841 | 16 | 130 | 4.8 | 6.4 | 0.00 | 0.00 | 0.00 | 76 | 1016.9 |
| 20260507040344 | 16 | 130 | 1.6 | 4.8 | 0.00 | 0.00 | 0.00 | 76 | 1016.9 |
| 20260507040340 | 16 | 130 | 3.2 | 4.8 | 0.00 | 0.00 | 0.00 | 76 | 1016.9 |
| 20260507035340 | 16 | 149 | 0.0 | 3.2 | 0.00 | 0.00 | 0.00 | 75 | 1016.9 |
| 20260507034839 | 16 | 145 | 0.0 | 3.2 | 0.00 | 0.00 | 0.00 | 75 | 1016.7 |
| 20260507034339 | 16 | 144 | 0.0 | 4.8 | 0.00 | 0.00 | 0.00 | 75 | 1016.6 |
| 20260507033839 | 16 | 149 | 1.6 | 4.8 | 0.00 | 0.00 | 0.00 | 75 | 1016.6 |
| 20260507033339 | 15 | 147 | 1.6 | 4.8 | 0.00 | 0.00 | 0.00 | 76 | 1016.6 |
| 20260507032839 | 15 | 143 | 1.6 | 4.8 | 0.00 | 0.00 | 0.00 | 75 | 1016.6 |
| 20260507032339 | 15 | 143 | 3.2 | 6.4 | 0.00 | 0.00 | 0.00 | 73 | 1016.5 |
| 20260507031839 | 15 | 142 | 1.6 | 6.4 | 0.00 | 0.00 | 0.00 | 74 | 1016.4 |
| 20260507031338 | 15 | 131 | 0.0 | 3.2 | 0.00 | 0.00 | 0.00 | 75 | 1016.4 |
| 20260507030838 | 15 | 121 | 0.0 | 3.2 | 0.00 | 0.00 | 0.00 | 75 | 1016.4 |
| 20260507030339 | 15 | 115 | 0.0 | 3.2 | 0.00 | 0.00 | 0.00 | 75 | 1016.3 |
| 20260507025843 | 15 | 246 | 3.2 | 4.8 | 0.00 | 0.00 | 0.00 | 77 | 1016.3 |
| 20260507025839 | 15 | 317 | 1.6 | 4.8 | 0.00 | 0.00 | 0.00 | 76 | 1016.3 |
| 20260507024840 | 15 | 245 | 1.6 | 4.8 | 0.00 | 0.00 | 0.00 | 77 | 1016.2 |
| 20260507024836 | 15 | 222 | 1.6 | 4.8 | 0.00 | 0.00 | 0.00 | 73 | 1016.0 |
| 20260507023835 | 15 | 235 | 1.6 | 4.8 | 0.00 | 0.00 | 0.00 | 74 | 1016.0 |
| 20260507023335 | 15 | 220 | 4.8 | 8.0 | 0.00 | 0.00 | 0.00 | 70 | 1016.2 |
| 20260507022833 | 15 | 211 | 3.2 | 8.0 | 0.00 | 0.00 | 0.00 | 72 | 1016.0 |
| 20260507022337 | 15 | 201 | 4.8 | 11.3 | 0.00 | 0.00 | 0.00 | 70 | 1016.0 |
| 20260507022333 | 15 | 225 | 3.2 | 11.3 | 0.00 | 0.00 | 0.00 | 74 | 1015.9 |
| 20260507021334 | 15 | 204 | 8.0 | 11.3 | 0.00 | 0.00 | 0.00 | 71 | 1015.9 |
| 20260507021330 | 15 | 205 | 8.0 | 11.3 | 0.00 | 0.00 | 0.00 | 71 | 1015.8 |
| 20260507020331 | 15 | 213 | 8.0 | 11.3 | 0.00 | 0.00 | 0.00 | 70 | 1015.8 |
| 20260507015828 | 16 | 213 | 8.0 | 11.3 | 0.00 | 0.00 | 0.00 | 70 | 1015.8 |
| 20260507015328 | 16 | 213 | 8.0 | 9.7 | 0.00 | 0.00 | 0.00 | 72 | 1015.8 |
| 20260507014829 | 16 | 214 | 6.4 | 9.7 | 0.00 | 0.00 | 0.00 | 72 | 1015.8 |
| 20260507014329 | 17 | 207 | 6.4 | 9.7 | 0.00 | 0.00 | 0.00 | 76 | 1015.8 |
| 20260507013834 | 17 | 238 | 6.4 | 11.3 | 0.00 | 0.00 | 0.00 | 75 | 1015.8 |
| 20260507013829 | 17 | 221 | 6.4 | 9.7 | 0.00 | 0.00 | 0.00 | 76 | 1015.9 |
| 20260507013328 | 17 | 253 | 6.4 | 11.3 | 0.00 | 0.00 | 0.00 | 75 | 1015.8 |
| 20260507012329 | 17 | 258 | 4.8 | 14.5 | 0.00 | 0.00 | 0.00 | 75 | 1015.8 |
| 20260507011828 | 17 | 218 | 4.8 | 14.5 | 0.00 | 0.00 | 0.00 | 76 | 1015.8 |
| 20260507011329 | 17 | 285 | 4.8 | 12.9 | 0.00 | 0.00 | 0.00 | 76 | 1015.7 |
| 20260507010829 | 16 | 236 | 4.8 | 11.3 | 0.00 | 0.00 | 0.00 | 77 | 1015.7 |
| 20260507010329 | 16 | 242 | 4.8 | 11.3 | 0.00 | 0.00 | 0.00 | 77 | 1015.7 |
| 20260507005828 | 16 | 223 | 4.8 | 11.3 | 0.00 | 0.00 | 0.00 | 78 | 1015.7 |
| 20260507005328 | 16 | 193 | 4.8 | 8.0 | 0.00 | 0.00 | 0.00 | 79 | 1015.7 |
| 20260507004828 | 16 | 229 | 3.2 | 9.7 | 0.00 | 0.00 | 0.00 | 80 | 1015.6 |
| 20260507004328 | 16 | 248 | 3.2 | 9.7 | 0.00 | 0.00 | 0.00 | 81 | 1015.7 |
| 20260507003828 | 16 | 221 | 3.2 | 8.0 | 0.00 | 0.00 | 0.00 | 83 | 1015.7 |
| 20260507003334 | 15 | 226 | 4.8 | 12.9 | 0.00 | 0.00 | 0.00 | 84 | 1015.7 |
| 20260507003329 | 15 | 224 | 3.2 | 8.0 | 0.00 | 0.00 | 0.00 | 84 | 1015.7 |
| 20260507002328 | 15 | 225 | 4.8 | 12.9 | 0.00 | 0.00 | 0.00 | 84 | 1015.7 |
| 20260507001828 | 15 | 244 | 4.8 | 8.0 | 0.00 | 0.00 | 0.00 | 84 | 1015.6 |
| 20260507001327 | 15 | 228 | 4.8 | 11.3 | 0.00 | 0.00 | 0.00 | 83 | 1015.7 |
| 20260507000826 | 15 | 237 | 6.4 | 12.9 | 0.00 | 0.00 | 0.00 | 84 | 1015.7 |
| 20260507000328 | 15 | 284 | 6.4 | 12.9 | 0.00 | 0.00 | 0.00 | 84 | 1015.7 |
| 20260506235824 | 15 | 227 | 4.8 | 12.9 | 0.00 | 0.00 | 0.00 | 85 | 1015.7 |
| 20260506235324 | 15 | 254 | 4.8 | 12.9 | 0.00 | 0.00 | 0.00 | 86 | 1015.6 |
| 20260506234824 | 15 | 227 | 6.4 | 12.9 | 0.00 | 0.00 | 0.00 | 86 | 1015.6 |
| 20260506234325 | 15 | 216 | 6.4 | 12.9 | 0.00 | 0.00 | 0.00 | 86 | 1015.6 |
| 20260506233823 | 15 | 201 | 8.0 | 14.5 | 0.00 | 0.00 | 0.00 | 85 | 1015.6 |
| 20260506233323 | 15 | 175 | 8.0 | 14.5 | 0.00 | 0.00 | 0.00 | 85 | 1015.6 |
| 20260506232826 | 16 | 206 | 6.4 | 17.7 | 0.00 | 0.00 | 0.00 | 83 | 1015.6 |
| 20260506232822 | 15 | 186 | 8.0 | 14.5 | 0.00 | 0.00 | 0.00 | 84 | 1015.7 |
| 20260506231820 | 16 | 180 | 6.4 | 17.7 | 0.00 | 0.00 | 0.00 | 83 | 1015.6 |
| 20260506231320 | 15 | 205 | 8.0 | 16.1 | 0.00 | 0.00 | 0.00 | 83 | 1015.7 |
| 20260506230820 | 15 | 234 | 9.7 | 16.1 | 0.00 | 0.00 | 0.00 | 83 | 1015.8 |
| 20260506230320 | 15 | 215 | 11.3 | 16.1 | 0.00 | 0.00 | 0.00 | 83 | 1015.8 |
| 20260506225818 | 15 | 213 | 11.3 | 17.7 | 0.00 | 0.00 | 0.00 | 82 | 1015.8 |
| 20260506225322 | 15 | 187 | 11.3 | 19.3 | 0.00 | 0.00 | 0.00 | 81 | 1015.9 |
| 20260506225318 | 15 | 200 | 11.3 | 19.3 | 0.00 | 0.00 | 0.00 | 81 | 1015.7 |
| 20260506224319 | 15 | 168 | 11.3 | 19.3 | 0.00 | 0.00 | 0.00 | 81 | 1015.9 |
| 20260506223818 | 15 | 203 | 11.3 | 17.7 | 0.00 | 0.00 | 0.00 | 81 | 1016.0 |
| 20260506223318 | 15 | 178 | 12.9 | 20.9 | 0.00 | 0.00 | 0.00 | 80 | 1016.0 |
| 20260506222816 | 15 | 199 | 12.9 | 20.9 | 0.00 | 0.00 | 0.00 | 79 | 1016.2 |
| 20260506222316 | 15 | 187 | 12.9 | 20.9 | 0.00 | 0.00 | 0.00 | 78 | 1016.2 |
| 20260506221816 | 15 | 213 | 12.9 | 22.5 | 0.00 | 0.00 | 0.00 | 79 | 1016.3 |
| 20260506221316 | 15 | 210 | 12.9 | 22.5 | 0.00 | 0.00 | 0.00 | 78 | 1016.3 |
| 20260506220820 | 15 | 171 | 11.3 | 19.3 | 0.00 | 0.00 | 0.00 | 81 | 1016.5 |
| 20260506220816 | 15 | 198 | 11.3 | 22.5 | 0.00 | 0.00 | 0.00 | 79 | 1016.5 |
| 20260506215818 | 15 | 196 | 12.9 | 19.3 | 0.00 | 0.00 | 0.00 | 81 | 1016.6 |
| 20260506215814 | 15 | 184 | 12.9 | 19.3 | 0.00 | 0.00 | 0.00 | 81 | 1016.5 |
| 20260506214814 | 15 | 196 | 11.3 | 19.3 | 0.00 | 0.00 | 0.00 | 81 | 1016.6 |
| 20260506214314 | 15 | 194 | 9.7 | 19.3 | 0.00 | 0.00 | 0.00 | 82 | 1016.7 |
| 20260506213814 | 14 | 196 | 11.3 | 19.3 | 0.00 | 0.00 | 0.00 | 83 | 1016.7 |
| 20260506213314 | 14 | 187 | 12.9 | 20.9 | 0.00 | 0.00 | 0.00 | 83 | 1016.8 |
| 20260506212814 | 14 | 163 | 11.3 | 20.9 | 0.00 | 0.00 | 0.00 | 82 | 1016.9 |
| 20260506212318 | 15 | 184 | 12.9 | 20.9 | 0.00 | 0.00 | 0.00 | 81 | 1016.9 |
| 20260506212314 | 15 | 220 | 11.3 | 20.9 | 0.00 | 0.00 | 0.00 | 82 | 1016.8 |
| 20260506211313 | 14 | 210 | 12.9 | 22.5 | 0.00 | 0.00 | 0.00 | 82 | 1016.8 |
| 20260506210812 | 14 | 182 | 12.9 | 22.5 | 0.00 | 0.00 | 0.00 | 81 | 1016.8 |
| 20260506210316 | 14 | 161 | 9.7 | 20.9 | 0.00 | 0.00 | 0.00 | 80 | 1016.9 |
| 20260506210312 | 14 | 185 | 11.3 | 20.9 | 0.00 | 0.00 | 0.00 | 81 | 1016.9 |
| 20260506205312 | 15 | 171 | 11.3 | 22.5 | 0.00 | 0.00 | 0.00 | 80 | 1016.9 |
| 20260506204811 | 15 | 209 | 11.3 | 22.5 | 0.00 | 0.00 | 0.00 | 80 | 1017.0 |
| 20260506204311 | 15 | 196 | 9.7 | 19.3 | 0.00 | 0.00 | 0.00 | 79 | 1016.9 |
| 20260506203811 | 15 | 184 | 9.7 | 16.1 | 0.00 | 0.00 | 0.00 | 80 | 1017.0 |
| 20260506203315 | 15 | 185 | 9.7 | 17.7 | 0.00 | 0.00 | 0.00 | 80 | 1017.1 |
| 20260506203311 | 15 | 221 | 9.7 | 16.1 | 0.00 | 0.00 | 0.00 | 79 | 1017.1 |
| 20260506202311 | 15 | 237 | 11.3 | 17.7 | 0.00 | 0.00 | 0.00 | 80 | 1017.2 |
| 20260506201807 | 15 | 220 | 9.7 | 16.1 | 0.00 | 0.00 | 0.00 | 82 | 1017.2 |
| 20260506201308 | 14 | 184 | 9.7 | 19.3 | 0.00 | 0.00 | 0.00 | 83 | 1017.3 |
| 20260506200808 | 14 | 210 | 8.0 | 19.3 | 0.00 | 0.00 | 0.00 | 83 | 1017.3 |
| 20260506200307 | 14 | 194 | 9.7 | 19.3 | 0.00 | 0.00 | 0.00 | 83 | 1017.3 |
| 20260506195808 | 14 | 188 | 11.3 | 19.3 | 0.00 | 0.00 | 0.00 | 83 | 1017.4 |
| 20260506195306 | 14 | 190 | 9.7 | 19.3 | 0.00 | 0.00 | 0.00 | 82 | 1017.4 |
| 20260506194812 | 14 | 202 | 9.7 | 17.7 | 0.00 | 0.00 | 0.00 | 84 | 1017.4 |
| 20260506194807 | 14 | 196 | 9.7 | 16.1 | 0.00 | 0.00 | 0.00 | 83 | 1017.4 |
| 20260506193811 | 14 | 195 | 9.7 | 19.3 | 0.00 | 0.00 | 0.00 | 83 | 1017.5 |
| 20260506193805 | 13 | 194 | 9.7 | 17.7 | 0.00 | 0.00 | 0.00 | 84 | 1017.4 |
| 20260506192812 | 14 | 209 | 9.7 | 17.7 | 0.00 | 0.00 | 0.00 | 82 | 1017.5 |
| 20260506192806 | 13 | 186 | 9.7 | 19.3 | 0.00 | 0.00 | 0.00 | 83 | 1017.5 |
| 20260506191805 | 14 | 182 | 9.7 | 17.7 | 0.00 | 0.00 | 0.00 | 82 | 1017.5 |
| 20260506191306 | 14 | 191 | 8.0 | 17.7 | 0.00 | 0.00 | 0.00 | 82 | 1017.7 |
| 20260506190806 | 14 | 200 | 9.7 | 17.7 | 0.00 | 0.00 | 0.00 | 83 | 1017.8 |
| 20260506190305 | 14 | 192 | 8.0 | 16.1 | 0.00 | 0.00 | 0.00 | 81 | 1017.7 |
| 20260506185806 | 15 | 192 | 6.4 | 16.1 | 0.00 | 0.00 | 0.00 | 84 | 1017.9 |
| 20260506185307 | 13 | 205 | 8.0 | 16.1 | 0.00 | 0.00 | 0.00 | 84 | 1017.9 |
| 20260506184805 | 13 | 209 | 9.7 | 17.7 | 0.00 | 0.00 | 0.00 | 85 | 1017.8 |
| 20260506184312 | 13 | 206 | 9.7 | 16.1 | 0.00 | 0.00 | 0.00 | 85 | 1017.8 |
| 20260506184306 | 13 | 193 | 9.7 | 17.7 | 0.00 | 0.00 | 0.00 | 83 | 1017.8 |
| 20260506183305 | 13 | 217 | 9.7 | 16.1 | 0.00 | 0.00 | 0.00 | 84 | 1017.8 |
| 20260506182805 | 13 | 193 | 8.0 | 14.5 | 0.00 | 0.00 | 0.00 | 83 | 1017.8 |
| 20260506182307 | 13 | 197 | 6.4 | 14.5 | 0.00 | 0.00 | 0.00 | 82 | 1017.9 |
| 20260506181806 | 14 | 196 | 8.0 | 14.5 | 0.00 | 0.00 | 0.00 | 82 | 1017.9 |
| 20260506181306 | 14 | 200 | 6.4 | 12.9 | 0.00 | 0.00 | 0.00 | 83 | 1017.9 |
| 20260506180804 | 14 | 201 | 4.8 | 12.9 | 0.00 | 0.00 | 0.00 | 82 | 1017.9 |
| 20260506180304 | 14 | 146 | 6.4 | 12.9 | 0.00 | 0.00 | 0.00 | 82 | 1017.9 |
| 20260506175804 | 14 | 215 | 8.0 | 16.1 | 0.00 | 0.00 | 0.00 | 84 | 1018.0 |
| 20260506175306 | 14 | 139 | 8.0 | 16.1 | 0.00 | 0.00 | 0.00 | 84 | 1018.0 |
| 20260506174808 | 13 | 143 | 6.4 | 12.9 | 0.00 | 0.00 | 0.00 | 86 | 1017.9 |
| 20260506174804 | 13 | 135 | 6.4 | 12.9 | 0.00 | 0.00 | 0.00 | 86 | 1017.9 |
| 20260506173804 | 13 | 124 | 6.4 | 12.9 | 0.00 | 0.00 | 0.00 | 88 | 1017.7 |
| 20260506173303 | 13 | 191 | 8.0 | 14.5 | 0.00 | 0.00 | 0.00 | 88 | 1017.8 |
| 20260506172803 | 13 | 153 | 6.4 | 14.5 | 0.00 | 0.00 | 0.00 | 88 | 1017.7 |
| 20260506172301 | 13 | 173 | 6.4 | 12.9 | 0.00 | 0.00 | 0.00 | 88 | 1017.8 |
| 20260506171801 | 13 | 174 | 6.4 | 12.9 | 0.00 | 0.00 | 0.00 | 88 | 1017.8 |
| 20260506171301 | 13 | 150 | 4.8 | 12.9 | 0.00 | 0.00 | 0.00 | 88 | 1017.7 |
| 20260506170805 | 13 | 165 | 4.8 | 12.9 | 0.00 | 0.00 | 0.00 | 86 | 1017.7 |
| 20260506170801 | 13 | 138 | 6.4 | 12.9 | 0.00 | 0.00 | 0.00 | 87 | 1017.7 |
| 20260506165801 | 13 | 128 | 3.2 | 9.7 | 0.00 | 0.00 | 0.00 | 85 | 1017.7 |
| 20260506165305 | 13 | 118 | 1.6 | 8.0 | 0.00 | 0.00 | 0.00 | 86 | 1017.5 |
| 20260506164801 | 13 | 167 | 3.2 | 11.3 | 0.00 | 0.00 | 0.00 | 86 | 1017.5 |
| 20260506164301 | 13 | 175 | 3.2 | 11.3 | 0.00 | 0.00 | 0.00 | 87 | 1017.4 |
| 20260506163803 | 13 | 140 | 3.2 | 11.3 | 0.00 | 0.00 | 0.00 | 85 | 1017.5 |
| 20260506163759 | 13 | 134 | 4.8 | 11.3 | 0.00 | 0.00 | 0.00 | 87 | 1017.5 |
| 20260506163259 | 13 | 158 | 4.8 | 11.3 | 0.00 | 0.00 | 0.00 | 87 | 1017.4 |
| 20260506162259 | 13 | 185 | 3.2 | 9.7 | 0.00 | 0.00 | 0.00 | 84 | 1017.5 |
| 20260506161759 | 13 | 122 | 3.2 | 11.3 | 0.00 | 0.00 | 0.00 | 84 | 1017.5 |
| 20260506161259 | 13 | 120 | 4.8 | 11.3 | 0.00 | 0.00 | 0.00 | 82 | 1017.5 |
| 20260506160759 | 13 | 77 | 4.8 | 11.3 | 0.00 | 0.00 | 0.00 | 81 | 1017.4 |
| 20260506160257 | 13 | 142 | 4.8 | 11.3 | 0.00 | 0.00 | 0.00 | 81 | 1017.4 |
| 20260506155757 | 13 | 74 | 3.2 | 11.3 | 0.00 | 0.00 | 0.00 | 80 | 1017.4 |
| 20260506155257 | 13 | 142 | 3.2 | 11.3 | 0.00 | 0.00 | 0.00 | 80 | 1017.4 |
| 20260506154801 | 13 | 141 | 4.8 | 12.9 | 0.00 | 0.00 | 0.00 | 80 | 1017.4 |
| 20260506154757 | 13 | 130 | 3.2 | 11.3 | 0.00 | 0.00 | 0.00 | 80 | 1017.4 |
| 20260506154404 | 13 | 73 | 4.8 | 12.9 | 0.00 | 0.00 | 0.00 | 80 | 1017.4 |
| 20260506153301 | 13 | 96 | 1.6 | 9.7 | 0.00 | 0.00 | 0.00 | 80 | 1017.4 |
| 20260506153257 | 13 | 73 | 3.2 | 11.3 | 0.00 | 0.00 | 0.00 | 81 | 1017.4 |
| 20260506152904 | 13 | 133 | 1.6 | 8.0 | 0.00 | 0.00 | 0.00 | 80 | 1017.3 |
| 20260506151757 | 13 | 124 | 3.2 | 9.7 | 0.00 | 0.00 | 0.00 | 79 | 1017.3 |
| 20260506151255 | 13 | 122 | 4.8 | 9.7 | 0.00 | 0.00 | 0.00 | 79 | 1017.3 |
| 20260506150755 | 13 | 132 | 3.2 | 9.7 | 0.00 | 0.00 | 0.00 | 78 | 1017.3 |
| 20260506150304 | 13 | 126 | 0.0 | 9.7 | 0.00 | 0.00 | 0.00 | 75 | 1017.3 |
| 20260506145755 | 13 | 128 | 0.0 | 4.8 | 0.00 | 0.00 | 0.00 | 75 | 1017.3 |
| 20260506145256 | 13 | 124 | 0.0 | 4.8 | 0.00 | 0.00 | 0.00 | 73 | 1017.3 |
| 20260506144759 | 13 | 163 | 1.6 | 6.4 | 0.00 | 0.00 | 0.00 | 74 | 1017.3 |
| 20260506144755 | 13 | 164 | 0.0 | 4.8 | 0.00 | 0.00 | 0.00 | 73 | 1017.4 |
| 20260506143754 | 13 | 135 | 0.0 | 6.4 | 0.00 | 0.00 | 0.00 | 74 | 1017.3 |
| 20260506143255 | 13 | 162 | 0.0 | 3.2 | 0.00 | 0.00 | 0.00 | 72 | 1017.3 |
| 20260506142755 | 12 | 162 | 0.0 | 0.0 | 0.00 | 0.00 | 0.00 | 74 | 1017.4 |
| 20260506142255 | 12 | 162 | 0.0 | 0.0 | 0.00 | 0.00 | 0.00 | 74 | 1017.3 |
| 20260506141755 | 12 | 162 | 0.0 | 0.0 | 0.00 | 0.00 | 0.00 | 75 | 1017.2 |
| 20260506141254 | 12 | 162 | 0.0 | 0.0 | 0.00 | 0.00 | 0.00 | 76 | 1017.2 |
| 20260506140755 | 11 | 162 | 0.0 | 1.6 | 0.00 | 0.00 | 0.00 | 77 | 1017.2 |
| 20260506140254 | 11 | 162 | 0.0 | 1.6 | 0.00 | 0.00 | 0.00 | 77 | 1017.1 |
| 20260506135755 | 11 | 162 | 0.0 | 0.0 | 0.00 | 0.00 | 0.00 | 78 | 1017.1 |
| 20260506135255 | 11 | 162 | 0.0 | 0.0 | 0.00 | 0.00 | 0.00 | 78 | 1017.1 |
| 20260506134759 | 11 | 162 | 0.0 | 0.0 | 0.00 | 0.00 | 0.00 | 76 | 1017.0 |
| 20260506134755 | 11 | 162 | 0.0 | 0.0 | 0.00 | 0.00 | 0.00 | 77 | 1017.0 |
| 20260506133753 | 11 | 162 | 0.0 | 0.0 | 0.00 | 0.00 | 0.00 | 76 | 1017.0 |
| 20260506133256 | 11 | 162 | 0.0 | 1.6 | 0.00 | 0.00 | 0.00 | 77 | 1017.0 |
| 20260506133252 | 11 | 162 | 0.0 | 1.6 | 0.00 | 0.00 | 0.00 | 76 | 1017.0 |
| 20260506132252 | 11 | 162 | 0.0 | 1.6 | 0.00 | 0.00 | 0.00 | 77 | 1016.9 |
| 20260506131758 | 11 | 162 | 1.6 | 6.4 | 0.00 | 0.00 | 0.00 | 78 | 1016.9 |
| 20260506131753 | 11 | 162 | 0.0 | 4.8 | 0.00 | 0.00 | 0.00 | 78 | 1017.0 |
| 20260506131401 | 11 | 157 | 1.6 | 6.4 | 0.00 | 0.00 | 0.00 | 78 | 1016.8 |
| 20260506130252 | 11 | 162 | 1.6 | 4.8 | 0.00 | 0.00 | 0.00 | 78 | 1016.8 |
| 20260506125751 | 11 | 158 | 1.6 | 4.8 | 0.00 | 0.00 | 0.00 | 78 | 1016.7 |
| 20260506125251 | 11 | 144 | 1.6 | 4.8 | 0.00 | 0.00 | 0.00 | 77 | 1016.7 |
| 20260506124751 | 11 | 140 | 0.0 | 3.2 | 0.00 | 0.00 | 0.00 | 78 | 1016.7 |
| 20260506124251 | 11 | 142 | 0.0 | 3.2 | 0.00 | 0.00 | 0.00 | 78 | 1016.7 |
| 20260506123751 | 11 | 142 | 0.0 | 3.2 | 0.00 | 0.00 | 0.00 | 78 | 1016.6 |
| 20260506123251 | 11 | 142 | 1.6 | 6.4 | 0.00 | 0.00 | 0.00 | 78 | 1016.6 |
| 20260506122752 | 11 | 141 | 3.2 | 6.4 | 0.00 | 0.00 | 0.00 | 77 | 1016.5 |
| 20260506122256 | 11 | 134 | 3.2 | 6.4 | 0.00 | 0.00 | 0.00 | 77 | 1016.4 |
| 20260506122252 | 11 | 135 | 4.8 | 6.4 | 0.00 | 0.00 | 0.00 | 77 | 1016.4 |
| 20260506121858 | 11 | 130 | 1.6 | 3.2 | 0.00 | 0.00 | 0.00 | 77 | 1016.4 |
| 20260506121326 | 11 | 130 | 1.6 | 3.2 | 0.00 | 0.00 | 0.00 | 77 | 1016.4 |
| 20260506121252 | 11 | 134 | 1.6 | 6.4 | 0.00 | 0.00 | 0.00 | 77 | 1016.4 |
| 20260506120251 | 11 | 138 | 0.0 | 8.0 | 0.00 | 0.00 | 0.00 | 77 | 1016.5 |
| 20260506115751 | 11 | 146 | 1.6 | 8.0 | 0.00 | 0.00 | 0.00 | 77 | 1016.4 |
| 20260506115255 | 11 | 155 | 4.8 | 8.0 | 0.00 | 0.00 | 0.00 | 77 | 1016.3 |
| 20260506115251 | 11 | 156 | 3.2 | 8.0 | 0.00 | 0.00 | 0.00 | 77 | 1016.4 |
| 20260506114859 | 11 | 153 | 4.8 | 8.0 | 0.00 | 0.00 | 0.00 | 77 | 1016.3 |
| 20260506113751 | 11 | 147 | 6.4 | 8.0 | 0.00 | 0.00 | 0.00 | 77 | 1016.3 |
| 20260506113251 | 11 | 136 | 4.8 | 6.4 | 0.00 | 0.00 | 0.00 | 77 | 1016.3 |
| 20260506112751 | 11 | 134 | 4.8 | 6.4 | 0.00 | 0.00 | 0.00 | 77 | 1016.3 |
| 20260506112251 | 11 | 136 | 4.8 | 6.4 | 0.00 | 0.00 | 0.00 | 77 | 1016.3 |
| 20260506111755 | 11 | 142 | 3.2 | 4.8 | 0.00 | 0.00 | 0.00 | 77 | 1016.2 |
| 20260506111751 | 11 | 146 | 3.2 | 6.4 | 0.00 | 0.00 | 0.00 | 77 | 1016.2 |
| 20260506110751 | 11 | 137 | 3.2 | 4.8 | 0.00 | 0.00 | 0.00 | 78 | 1016.2 |
| 20260506110248 | 11 | 137 | 4.8 | 8.0 | 0.00 | 0.00 | 0.00 | 77 | 1016.2 |
| 20260506105748 | 11 | 137 | 6.4 | 8.0 | 0.00 | 0.00 | 0.00 | 77 | 1016.3 |
| 20260506105248 | 11 | 138 | 6.4 | 8.0 | 0.00 | 0.00 | 0.00 | 76 | 1016.3 |
| 20260506104747 | 11 | 141 | 4.8 | 8.0 | 0.00 | 0.00 | 0.00 | 77 | 1016.3 |
| 20260506104247 | 11 | 131 | 3.2 | 6.4 | 0.00 | 0.00 | 0.00 | 78 | 1016.3 |
| 20260506103745 | 11 | 129 | 1.6 | 4.8 | 0.00 | 0.00 | 0.00 | 80 | 1016.3 |
| 20260506103244 | 11 | 85 | 0.0 | 1.6 | 0.00 | 0.00 | 0.00 | 80 | 1016.3 |
| 20260506102744 | 11 | 85 | 0.0 | 3.2 | 0.00 | 0.00 | 0.00 | 80 | 1016.3 |
| 20260506102244 | 11 | 85 | 0.0 | 3.2 | 0.00 | 0.00 | 0.00 | 81 | 1016.3 |
| 20260506101744 | 11 | 85 | 0.0 | 3.2 | 0.00 | 0.00 | 0.00 | 82 | 1016.3 |
| 20260506101244 | 11 | 85 | 0.0 | 3.2 | 0.00 | 0.00 | 0.00 | 82 | 1016.3 |
| 20260506100744 | 11 | 85 | 1.6 | 4.8 | 0.00 | 0.00 | 0.00 | 83 | 1016.3 |
| 20260506100244 | 11 | 85 | 1.6 | 4.8 | 0.00 | 0.00 | 0.00 | 83 | 1016.3 |
| 20260506095744 | 11 | 85 | 1.6 | 4.8 | 0.00 | 0.00 | 0.00 | 83 | 1016.3 |
| 20260506095247 | 11 | 109 | 1.6 | 3.2 | 0.00 | 0.00 | 0.00 | 83 | 1016.4 |
| 20260506095242 | 11 | 143 | 1.6 | 3.2 | 0.00 | 0.00 | 0.00 | 82 | 1016.4 |
| 20260506094242 | 11 | 109 | 0.0 | 3.2 | 0.00 | 0.00 | 0.00 | 82 | 1016.4 |
| 20260506093746 | 11 | 109 | 0.0 | 3.2 | 0.00 | 0.00 | 0.00 | 82 | 1016.5 |
| 20260506093742 | 11 | 109 | 0.0 | 3.2 | 0.00 | 0.00 | 0.00 | 82 | 1016.5 |
| 20260506092742 | 11 | 109 | 1.6 | 4.8 | 0.00 | 0.00 | 0.00 | 81 | 1016.4 |
| 20260506092242 | 11 | 109 | 3.2 | 6.4 | 0.00 | 0.00 | 0.00 | 82 | 1016.4 |
| 20260506091742 | 11 | 109 | 1.6 | 6.4 | 0.00 | 0.00 | 0.00 | 81 | 1016.4 |
| 20260506091242 | 11 | 109 | 1.6 | 4.8 | 0.00 | 0.00 | 0.00 | 81 | 1016.4 |
| 20260506090742 | 11 | 109 | 1.6 | 4.8 | 0.00 | 0.00 | 0.00 | 81 | 1016.5 |
| 20260506090240 | 11 | 109 | 1.6 | 4.8 | 0.00 | 0.00 | 0.00 | 80 | 1016.5 |
| 20260506085740 | 11 | 109 | 1.6 | 4.8 | 0.00 | 0.00 | 0.00 | 80 | 1016.6 |
| 20260506085240 | 11 | 109 | 1.6 | 4.8 | 0.00 | 0.00 | 0.00 | 80 | 1016.6 |
| 20260506084740 | 11 | 109 | 0.0 | 3.2 | 0.00 | 0.00 | 0.00 | 80 | 1016.7 |
| 20260506084240 | 11 | 109 | 1.6 | 6.4 | 0.00 | 0.00 | 0.00 | 80 | 1016.7 |
| 20260506083740 | 11 | 109 | 3.2 | 6.4 | 0.00 | 0.00 | 0.00 | 80 | 1016.8 |
| 20260506083244 | 11 | 111 | 3.2 | 6.4 | 0.00 | 0.00 | 0.00 | 81 | 1016.8 |
| 20260506083240 | 11 | 109 | 3.2 | 6.4 | 0.00 | 0.00 | 0.00 | 80 | 1016.7 |
| 20260506082847 | 11 | 111 | 1.6 | 6.4 | 0.00 | 0.00 | 0.00 | 81 | 1016.8 |
| 20260506081741 | 11 | 127 | 1.6 | 6.4 | 0.00 | 0.00 | 0.00 | 81 | 1016.8 |
| 20260506081238 | 11 | 146 | 0.0 | 0.0 | 0.00 | 0.00 | 0.00 | 82 | 1016.8 |
| 20260506080742 | 11 | 146 | 0.0 | 0.0 | 0.00 | 0.00 | 0.00 | 82 | 1016.8 |
| 20260506080738 | 11 | 146 | 0.0 | 0.0 | 0.00 | 0.00 | 0.00 | 82 | 1016.8 |
| 20260506080345 | 11 | 146 | 0.0 | 0.0 | 0.00 | 0.00 | 0.00 | 82 | 1016.9 |
| 20260506073236 | 11 | 146 | 0.0 | 0.0 | 0.00 | 0.00 | 0.00 | 83 | 1016.9 |
| 20260506072734 | 11 | 146 | 0.0 | 3.2 | 0.00 | 0.00 | 0.00 | 84 | 1016.8 |
| 20260506072233 | 11 | 146 | 0.0 | 3.2 | 0.00 | 0.00 | 0.00 | 83 | 1016.9 |
| 20260506071734 | 11 | 146 | 0.0 | 4.8 | 0.00 | 0.00 | 0.00 | 83 | 1016.8 |
| 20260506071234 | 11 | 148 | 3.2 | 6.4 | 0.00 | 0.00 | 0.00 | 82 | 1016.7 |
| 20260506070733 | 11 | 200 | 4.8 | 6.4 | 0.00 | 0.00 | 0.00 | 81 | 1016.7 |
| 20260506070238 | 11 | 192 | 4.8 | 8.0 | 0.00 | 0.00 | 0.00 | 81 | 1016.5 |
| 20260506070234 | 11 | 206 | 4.8 | 6.4 | 0.00 | 0.00 | 0.00 | 81 | 1016.5 |
| 20260506062231 | 11 | 237 | 8.0 | 16.1 | 0.00 | 0.00 | 0.00 | 80 | 1016.2 |
| 20260506061730 | 11 | 225 | 9.7 | 16.1 | 0.00 | 0.00 | 0.00 | 79 | 1016.3 |
| 20260506061230 | 11 | 229 | 8.0 | 16.1 | 0.00 | 0.00 | 0.00 | 80 | 1016.2 |
| 20260506060729 | 11 | 252 | 6.4 | 16.1 | 0.00 | 0.00 | 0.00 | 80 | 1016.2 |
| 20260506060229 | 11 | 239 | 6.4 | 12.9 | 0.00 | 0.00 | 0.00 | 80 | 1016.0 |
| 20260506050731 | 12 | 214 | 8.0 | 12.9 | 0.00 | 0.00 | 0.00 | 78 | 1015.8 |
| 20260506050726 | 12 | 201 | 8.0 | 12.9 | 0.00 | 0.00 | 0.00 | 77 | 1015.8 |
| 20260506044723 | 12 | 192 | 9.7 | 12.9 | 0.00 | 0.00 | 0.00 | 77 | 1015.6 |
| 20260506044223 | 12 | 192 | 9.7 | 12.9 | 0.00 | 0.00 | 0.00 | 78 | 1015.4 |
| 20260506043728 | 12 | 192 | 9.7 | 11.3 | 0.00 | 0.00 | 0.00 | 80 | 1015.4 |
| 20260506043724 | 12 | 193 | 9.7 | 11.3 | 0.00 | 0.00 | 0.00 | 78 | 1015.4 |
| 20260506042727 | 12 | 184 | 11.3 | 12.9 | 0.00 | 0.00 | 0.00 | 80 | 1015.3 |
| 20260506042723 | 12 | 192 | 9.7 | 12.9 | 0.00 | 0.00 | 0.00 | 80 | 1015.4 |
| 20260506041723 | 12 | 189 | 11.3 | 12.9 | 0.00 | 0.00 | 0.00 | 80 | 1015.2 |